Simultaneous Nadir Overpasses (SNOs) Predictions

Prediction of SNOs between GOES-16 and NPP Satellite Orbit:

Table of predicted SNOs for the next 14.0 days since TLE Epoch: 12/21/2024
Index Date Time (GOES-16) GOES-16 Lat,Lon NPP Lat,Lon Distance(km) Time Diff (sec)
1 12/22/2024 06:32:49 -0.01, -75.19 0.32, -76.57 158.56 80
2 12/23/2024 06:11:27 -0.01, -75.19 -0.72, -72.05 358.06 80
3 12/24/2024 18:33:26 0.01, -75.22 -0.46, -77.37 244.38 80
4 12/25/2024 18:17:23 -0.00, -75.23 0.53, -72.84 272.84 80
5 12/27/2024 06:39:12 0.01, -75.24 0.67, -78.11 327.60 80
6 12/28/2024 06:17:50 0.01, -75.25 -0.38, -73.59 189.37 80
7 12/29/2024 18:39:48 -0.00, -75.27 -0.84, -78.89 413.17 80
8 12/30/2024 18:23:45 -0.00, -75.29 0.22, -74.38 104.13 80
9 01/01/2025 06:45:35 -0.00, -75.30 0.97, -79.65 495.60 80
10 01/02/2025 06:24:11 -0.00, -75.31 -0.03, -75.12 21.79 80
